Tillbaka till svenska Fidonet
English   Information   Debug  
FILM   0/18
FNEWS_PUBLISH   5090
FN_SYSOP   42250
FN_SYSOP_OLD1   71952
FTP_FIDO   0/2
FTSC_PUBLIC   0/13992
FUNNY   0/4886
GENEALOGY.EUR   0/71
GET_INFO   105
GOLDED   0/408
HAM   1327/16975
HOLYSMOKE   0/6791
HOT_SITES   0/1
HTMLEDIT   0/71
HUB203   466
HUB_100   264
HUB_400   39
HUMOR   0/29
IC   0/2851
INTERNET   0/424
INTERUSER   0/3
IP_CONNECT   719
JAMNNTPD   0/233
JAMTLAND   0/47
KATTY_KORNER   0/41
LAN   0/16
LINUX-USER   0/19
LINUXHELP   0/1155
LINUX   0/22471
LINUX_BBS   0/957
mail   18.68
mail_fore_ok   249
MENSA   0/341
MODERATOR   0/102
MONTE   0/992
MOSCOW_OKLAHOMA   0/1245
MUFFIN   0/783
MUSIC   0/321
N203_STAT   940
N203_SYSCHAT   313
NET203   321
NET204   69
NET_DEV   0/10
NORD.ADMIN   0/101
NORD.CHAT   0/2572
NORD.FIDONET   189
NORD.HARDWARE   0/28
NORD.KULTUR   0/114
NORD.PROG   0/32
NORD.SOFTWARE   0/88
NORD.TEKNIK   0/58
NORD   0/453
OCCULT_CHAT   0/93
OS2BBS   0/787
OS2DOSBBS   0/580
OS2HW   0/42
OS2INET   0/37
OS2LAN   0/134
OS2PROG   0/36
OS2REXX   0/113
OS2USER-L   207
OS2   0/4837
OSDEBATE   0/18996
PASCAL   0/490
PERL   0/457
PHP   0/45
POINTS   0/405
POLITICS   0/29554
POL_INC   0/14731
PSION   103
R20_ADMIN   1134
R20_AMATORRADIO   0/2
R20_BEST_OF_FIDONET   17
R20_CHAT   0/899
R20_DEPP   0/3
R20_DEV   400
R20_ECHO2   1992
R20_ECHOPRES   0/35
R20_ESTAT   0/719
R20_FIDONETPROG...
...RAM.MYPOINT
  0/2
R20_FIDONETPROGRAM   0/22
R20_FIDONET   0/248
R20_FILEFIND   0/24
R20_FILEFOUND   0/22
R20_HIFI   0/3
R20_INFO2   3886
R20_INTERNET   0/12940
R20_INTRESSE   0/60
R20_INTR_KOM   0/99
R20_KANDIDAT.CHAT   42
R20_KANDIDAT   28
R20_KOM_DEV   112
R20_KONTROLL   0/13380
R20_KORSET   0/18
R20_LOKALTRAFIK   0/24
R20_MODERATOR   0/1852
R20_NC   76
R20_NET200   245
R20_NETWORK.OTH...
...ERNETS
  0/13
R20_OPERATIVSYS...
...TEM.LINUX
  0/45
R20_PROGRAMVAROR   0/1
R20_REC2NEC   534
R20_SFOSM   0/341
R20_SF   0/108
R20_SPRAK.ENGLISH   0/1
R20_SQUISH   107
R20_TEST   2
R20_WORST_OF_FIDONET   21
RAR   0/9
RA_MULTI   106
RA_UTIL   0/162
REGCON.EUR   0/2072
REGCON   0/13
SCIENCE   0/1206
SF   0/239
SHAREWARE_SUPPORT   0/5146
SHAREWRE   0/14
SIMPSONS   0/169
STATS_OLD1   0/2539.065
STATS_OLD2   0/2530
STATS_OLD3   0/2395.095
STATS_OLD4   0/1692.25
SURVIVOR   0/495
SYSOPS_CORNER   0/3
SYSOP   0/84
TAGLINES   0/112
TEAMOS2   0/4530
TECH   0/2617
TEST.444   0/105
TRAPDOOR   0/19
TREK   0/755
TUB   0/290
UFO   0/40
UNIX   0/1316
USA_EURLINK   0/102
USR_MODEMS   0/1
VATICAN   0/2740
VIETNAM_VETS   0/14
VIRUS   0/378
VIRUS_INFO   0/201
VISUAL_BASIC   0/473
WHITEHOUSE   0/5187
WIN2000   0/101
WIN32   0/30
WIN95   0/4291
WIN95_OLD1   0/70272
WINDOWS   0/1517
WWB_SYSOP   0/419
WWB_TECH   0/810
ZCC-PUBLIC   0/1
ZEC   4

 
4DOS   0/134
ABORTION   0/7
ALASKA_CHAT   0/506
ALLFIX_FILE   0/1313
ALLFIX_FILE_OLD1   0/7997
ALT_DOS   0/152
AMATEUR_RADIO   0/1039
AMIGASALE   0/14
AMIGA   0/331
AMIGA_INT   0/1
AMIGA_PROG   0/20
AMIGA_SYSOP   0/26
ANIME   0/15
ARGUS   0/924
ASCII_ART   0/340
ASIAN_LINK   0/651
ASTRONOMY   0/417
AUDIO   0/92
AUTOMOBILE_RACING   0/105
BABYLON5   0/17862
BAG   135
BATPOWER   0/361
BBBS.ENGLISH   0/382
BBSLAW   0/109
BBS_ADS   0/5290
BBS_INTERNET   0/507
BIBLE   0/3563
BINKD   0/1119
BINKLEY   0/215
BLUEWAVE   0/2173
CABLE_MODEMS   0/25
CBM   0/46
CDRECORD   0/66
CDROM   0/20
CLASSIC_COMPUTER   0/378
COMICS   0/15
CONSPRCY   0/899
COOKING   42875
COOKING_OLD1   0/24719
COOKING_OLD2   0/40862
COOKING_OLD3   0/37489
COOKING_OLD4   0/35496
COOKING_OLD5   9370
C_ECHO   0/189
C_PLUSPLUS   0/31
DIRTY_DOZEN   0/201
DOORGAMES   0/2397
DOS_INTERNET   0/196
duplikat   6103
ECHOLIST   0/18295
EC_SUPPORT   0/318
ELECTRONICS   0/359
ELEKTRONIK.GER   1534
ENET.LINGUISTIC   0/13
ENET.POLITICS   0/4
ENET.SOFT   0/11701
ENET.SYSOP   34573
ENET.TALKS   0/32
ENGLISH_TUTOR   0/2000
EVOLUTION   0/1335
FDECHO   0/217
FDN_ANNOUNCE   0/7068
FIDONEWS   25344
FIDONEWS_OLD1   0/49742
FIDONEWS_OLD2   0/35949
FIDONEWS_OLD3   0/30874
FIDONEWS_OLD4   0/37224
FIDO_SYSOP   12979
FIDO_UTIL   0/180
FILEFIND   0/209
FILEGATE   0/212
Möte HAM, 16975 texter
 lista första sista föregående nästa
Text 1250, 670 rader
Skriven 2006-09-22 00:32:27 av Amsat List (1:323/120.0)
Ärende: [keps]  orb06264.amsa
=============================
[keps]  orb06264.amsa


SB KEPS @ AMSAT  $ORB06264.O
Orbital Elements  06264.OSCAR

HR AMSAT ORBITAL ELEMENTS FOR OSCAR SATELLITES
FROM WA5QGD FORT WORTH,TX September 21, 2006
Send SUBSCRIBE KEPS/UNSUBSCRIBE KEPS to majordomo@amsat.org only
BID: ORB06264.O
TO ALL RADIO AMATEURS BT

Satellite: AO-07
Catalog number: 07530
Epoch time:      06263.55530841
Element set:     685
Inclination:      101.5586 deg
RA of node:       304.0713 deg
Eccentricity:    0.0012117
Arg of perigee:   061.5121 deg
Mean anomaly:     298.7170 deg
Mean motion:   12.53571537 rev/day
Decay rate:       -2.8e-07 rev/day^2
Epoch rev:           45733
Checksum:              278

Satellite: UO-11
Catalog number: 14781
Epoch time:      06264.08855022
Element set:     179
Inclination:      098.2080 deg
RA of node:       276.3455 deg
Eccentricity:    0.0008563
Arg of perigee:   323.0763 deg
Mean anomaly:     036.9846 deg
Mean motion:   14.79464079 rev/day
Decay rate:       4.11e-06 rev/day^2
Epoch rev:           20994
Checksum:              320

Satellite: RS-10/11
Catalog number: 18129
Epoch time:      06264.10289470
Element set:      96
Inclination:      082.9217 deg
RA of node:       257.1977 deg
Eccentricity:    0.0011114
Arg of perigee:   179.4070 deg
Mean anomaly:     180.7100 deg
Mean motion:   13.72778684 rev/day
Decay rate:        3.6e-07 rev/day^2
Epoch rev:           96431
Checksum:              304

Satellite: RS-15
Catalog number: 23439
Epoch time:      06261.94058305
Element set:    0037
Inclination:      064.8162 deg
RA of node:       085.5947 deg
Eccentricity:    0.0166387
Arg of perigee:   237.8312 deg
Mean anomaly:     120.6379 deg
Mean motion:   11.27551951 rev/day
Decay rate:       -3.9e-07 rev/day^2
Epoch rev:           48311
Checksum:              314

Satellite: FO-29
Catalog number: 24278
Epoch time:      06263.57125813
Element set:     323
Inclination:      098.5177 deg
RA of node:       254.9280 deg
Eccentricity:    0.0351411
Arg of perigee:   062.3521 deg
Mean anomaly:     301.2823 deg
Mean motion:   13.52923379 rev/day
Decay rate:       -4.5e-07 rev/day^2
Epoch rev:           49844
Checksum:              305

Satellite: SO-33
Catalog number: 25509
Epoch time:      06264.49124438
Element set:     749
Inclination:      031.4343 deg
RA of node:       304.8629 deg
Eccentricity:    0.0355656
Arg of perigee:   238.3510 deg
Mean anomaly:     118.1953 deg
Mean motion:   14.28117916 rev/day
Decay rate:       2.40e-06 rev/day^2
Epoch rev:           41281
Checksum:              302

Satellite: VO-52
Catalog number: 28650
Epoch time:      06263.71354163
Element set:     433
Inclination:      097.8644 deg
RA of node:       335.0156 deg
Eccentricity:    0.0028287
Arg of perigee:   052.3063 deg
Mean anomaly:     308.0718 deg
Mean motion:   14.81176026 rev/day
Decay rate:       4.82e-06 rev/day^2
Epoch rev:            7452
Checksum:              297

/EX
SB KEPS @ AMSAT  $ORB06264.D
Orbital Elements  06264.MICROS

HR AMSAT ORBITAL ELEMENTS FOR THE MICROSATS
FROM WA5QGD FORT WORTH,TX September 21, 2006
Send SUBSCRIBE KEPS/UNSUBSCRIBE KEPS to majordomo@amsat.org only
BID: ORB06264.D
TO ALL RADIO AMATEURS BT

Satellite: AO-16
Catalog number: 20439
Epoch time:      06263.75354107
Element set:     849
Inclination:      098.1908 deg
RA of node:       268.3322 deg
Eccentricity:    0.0010031
Arg of perigee:   272.2009 deg
Mean anomaly:     087.8011 deg
Mean motion:   14.31733373 rev/day
Decay rate:        2.3e-07 rev/day^2
Epoch rev:           86999
Checksum:              300

Satellite: LO-19
Catalog number: 20442
Epoch time:      06264.04697617
Element set:     784
Inclination:      098.1877 deg
RA of node:       278.1275 deg
Eccentricity:    0.0010986
Arg of perigee:   269.6457 deg
Mean anomaly:     090.3463 deg
Mean motion:   14.31976369 rev/day
Decay rate:        9.5e-07 rev/day^2
Epoch rev:           87017
Checksum:              356

Satellite: AO-27
Catalog number: 22825
Epoch time:      06263.52126714
Element set:     500
Inclination:      098.2934 deg
RA of node:       240.7179 deg
Eccentricity:    0.0008572
Arg of perigee:   346.6310 deg
Mean anomaly:     013.4644 deg
Mean motion:   14.29184180 rev/day
Decay rate:        6.6e-07 rev/day^2
Epoch rev:           67697
Checksum:              306

Satellite: IO-26
Catalog number: 22826
Epoch time:      06264.38479429
Element set:     193
Inclination:      098.2879 deg
RA of node:       242.7162 deg
Eccentricity:    0.0008914
Arg of perigee:   341.2777 deg
Mean anomaly:     018.8089 deg
Mean motion:   14.29428273 rev/day
Decay rate:        2.4e-07 rev/day^2
Epoch rev:           67717
Checksum:              346

Satellite: PO-28
Catalog number: 22829
Epoch time:      06264.47186637
Element set:     476
Inclination:      098.2773 deg
RA of node:       243.9970 deg
Eccentricity:    0.0009155
Arg of perigee:   314.0392 deg
Mean anomaly:     046.0049 deg
Mean motion:   14.30124209 rev/day
Decay rate:        7.7e-07 rev/day^2
Epoch rev:           67740
Checksum:              320

Satellite: GO-32
Catalog number: 25397
Epoch time:      06264.72334152
Element set:     115
Inclination:      098.4575 deg
RA of node:       318.1012 deg
Eccentricity:    0.0000827
Arg of perigee:   338.0615 deg
Mean anomaly:     022.0525 deg
Mean motion:   14.23110323 rev/day
Decay rate:      -1.29e-06 rev/day^2
Epoch rev:           42597
Checksum:              266

Satellite: MO-46
Catalog number: 26548
Epoch time:      06264.54115297
Element set:     601
Inclination:      064.5575 deg
RA of node:       293.7059 deg
Eccentricity:    0.0043026
Arg of perigee:   233.4443 deg
Mean anomaly:     126.2704 deg
Mean motion:   14.83020230 rev/day
Decay rate:       1.38e-06 rev/day^2
Epoch rev:           32369
Checksum:              289

